• In Uzbekistan
  • List of Countries
  • For 7 days
  • Water Temperature
  • Satellite Maps
  • Weather Map
  • Weather Widgets
  • user-avatar
    Login

    Hourly Weather Burhanovka

    Today, 23 September, Sunday

    Time Temperature Precipitation Wind Pressure Humidity
    00:00 +12°C° 0 mm 1 mps 737 mmHg 97%
    01:00 +12°C° 0 mm 1 mps 737 mmHg 97%
    02:00 +11°C° 0 mm 1 mps 737 mmHg 97%
    03:00 +10°C° 0 mm 0 mps 737 mmHg 97%
    04:00 +10°C° 0 mm 0 mps 737 mmHg 97%
    05:00 +10°C° 0 mm 0 mps 738 mmHg 97%
    06:00 +11°C° 0 mm 0 mps 738 mmHg 97%
    07:00 +11°C° 0 mm 0 mps 738 mmHg 97%
    08:00 +12°C° 0 mm 0 mps 738 mmHg 94%
    09:00 +13°C° 0 mm 0 mps 738 mmHg 90%
    10:00 +15°C° 0 mm 0 mps 738 mmHg 86%
    11:00 +18°C° 0 mm 1 mps 738 mmHg 84%
    12:00 +18°C° 0 mm 1 mps 738 mmHg 81%
    13:00 +19°C° 0 mm 1 mps 738 mmHg 78%
    14:00 +19°C° 0 mm 1 mps 738 mmHg 77%
    15:00 +19°C° 0 mm 1 mps 738 mmHg 76%
    16:00 +20°C° 0 mm 1 mps 738 mmHg 76%
    17:00 +18°C° 0 mm 1 mps 738 mmHg 81%
    18:00 +16°C° 0 mm 1 mps 737 mmHg 87%
    19:00 +15°C° 0 mm 2 mps 737 mmHg 92%
    20:00 +14°C° 0 mm 2 mps 737 mmHg 93%
    21:00 +14°C° 0 mm 2 mps 737 mmHg 94%
    22:00 +13°C° 0 mm 2 mps 737 mmHg 95%
    23:00 +13°C° 0 mm 2 mps 737 mmHg 95%

    Tomorrow, 24 September, Monday

    Time Temperature Precipitation Wind Pressure Humidity
    00:00 +13°C° 0 mm 2 mps 737 mmHg 96%
    01:00 +13°C° 0 mm 2 mps 737 mmHg 96%
    02:00 +13°C° 0 mm 2 mps 736 mmHg 96%
    03:00 +12°C° 0 mm 3 mps 736 mmHg 96%
    04:00 +12°C° 0 mm 3 mps 736 mmHg 97%
    05:00 +12°C° 0 mm 3 mps 736 mmHg 96%
    06:00 +12°C° 0 mm 3 mps 736 mmHg 96%
    07:00 +12°C° 0 mm 3 mps 736 mmHg 96%
    08:00 +13°C° 0 mm 3 mps 736 mmHg 91%
    09:00 +15°C° 0 mm 4 mps 736 mmHg 85%
    10:00 +18°C° 0 mm 4 mps 736 mmHg 80%
    11:00 +19°C° 0 mm 5 mps 736 mmHg 75%
    12:00 +20°C° 0 mm 5 mps 735 mmHg 70%
    13:00 +21°C° 0 mm 5 mps 735 mmHg 65%
    14:00 +21°C° 0.1 mm 5 mps 735 mmHg 66%
    15:00 +21°C° 0.1 mm 4 mps 735 mmHg 67%
    16:00 +20°C° 0.1 mm 4 mps 735 mmHg 68%
    17:00 +19°C° 0 mm 3 mps 735 mmHg 73%
    18:00 +17°C° 0 mm 3 mps 734 mmHg 78%
    19:00 +16°C° 0 mm 3 mps 734 mmHg 83%
    20:00 +14°C° 0 mm 3 mps 734 mmHg 85%
    21:00 +14°C° 0 mm 3 mps 734 mmHg 86%
    22:00 +13°C° 0 mm 3 mps 734 mmHg 87%
    23:00 +13°C° 0 mm 3 mps 734 mmHg 87%

    Day after tomorrow, 25 September, Tuesday

    Time Temperature Precipitation Wind Pressure Humidity
    00:00 +12°C° 0 mm 3 mps 734 mmHg 87%
    01:00 +12°C° 0 mm 3 mps 734 mmHg 87%
    02:00 +12°C° 0 mm 3 mps 734 mmHg 86%
    03:00 +11°C° 0 mm 3 mps 734 mmHg 84%
    04:00 +11°C° 0 mm 3 mps 734 mmHg 83%
    05:00 +11°C° 0 mm 3 mps 734 mmHg 82%
    06:00 +11°C° 0 mm 3 mps 734 mmHg 81%
    07:00 +11°C° 0 mm 3 mps 734 mmHg 80%
    08:00 +12°C° 0 mm 3 mps 734 mmHg 77%
    09:00 +13°C° 0 mm 4 mps 734 mmHg 74%
    10:00 +14°C° 0 mm 4 mps 734 mmHg 71%
    11:00 +15°C° 0 mm 5 mps 734 mmHg 68%
    12:00 +16°C° 0 mm 5 mps 734 mmHg 65%
    13:00 +17°C° 0 mm 6 mps 734 mmHg 62%
    14:00 +17°C° 0 mm 5 mps 734 mmHg 62%
    15:00 +19°C° 0 mm 5 mps 734 mmHg 62%
    16:00 +19°C° 0 mm 5 mps 733 mmHg 63%
    17:00 +17°C° 0 mm 4 mps 733 mmHg 66%
    18:00 +15°C° 0 mm 4 mps 733 mmHg 70%
    19:00 +13°C° 0 mm 4 mps 733 mmHg 74%
    20:00 +13°C° 0 mm 4 mps 733 mmHg 74%
    21:00 +12°C° 0 mm 4 mps 733 mmHg 74%
    22:00 +12°C° 0 mm 4 mps 733 mmHg 74%
    23:00 +12°C° 0.1 mm 4 mps 733 mmHg 72%

    26 September, Wednesday

    Time Temperature Precipitation Wind Pressure Humidity
    00:00 +12°C° 0.1 mm 4 mps 733 mmHg 69%
    01:00 +12°C° 0.1 mm 4 mps 733 mmHg 67%
    02:00 +12°C° 0.2 mm 5 mps 733 mmHg 67%
    03:00 +12°C° 0.2 mm 5 mps 733 mmHg 67%
    04:00 +10°C° 0.2 mm 5 mps 733 mmHg 68%
    05:00 +10°C° 0.3 mm 5 mps 733 mmHg 71%
    06:00 +10°C° 0.3 mm 5 mps 733 mmHg 75%
    07:00 +10°C° 0.3 mm 5 mps 733 mmHg 79%
    08:00 +10°C° 0.1 mm 5 mps 734 mmHg 79%
    09:00 +11°C° 0.1 mm 4 mps 734 mmHg 80%
    10:00 +12°C° 0.1 mm 4 mps 735 mmHg 81%
    11:00 +12°C° 0.1 mm 4 mps 735 mmHg 81%
    12:00 +12°C° 0.1 mm 4 mps 735 mmHg 80%
    13:00 +12°C° 0.1 mm 4 mps 736 mmHg 80%
    14:00 +11°C° 0.3 mm 4 mps 736 mmHg 81%
    15:00 +10°C° 0.3 mm 4 mps 737 mmHg 82%
    16:00 +10°C° 0.3 mm 4 mps 737 mmHg 83%
    17:00 +9°C° 0 mm 3 mps 737 mmHg 85%
    18:00 +9°C° 0 mm 3 mps 738 mmHg 87%
    19:00 +8°C° 0 mm 3 mps 738 mmHg 88%
    20:00 +8°C° 0 mm 3 mps 738 mmHg 89%
    21:00 +8°C° 0 mm 3 mps 739 mmHg 89%
    22:00 +8°C° 0 mm 2 mps 739 mmHg 89%
    23:00 +7°C° 0 mm 2 mps 739 mmHg 90%

    27 September, Thursday

    Time Temperature Precipitation Wind Pressure Humidity
    00:00 +7°C° 0 mm 2 mps 739 mmHg 90%
    01:00 +7°C° 0 mm 2 mps 739 mmHg 90%
    02:00 +6°C° 0 mm 2 mps 739 mmHg 91%
    03:00 +6°C° 0 mm 2 mps 739 mmHg 92%
    04:00 +6°C° 0 mm 2 mps 739 mmHg 92%
    05:00 +5°C° 0 mm 2 mps 739 mmHg 92%
    06:00 +5°C° 0 mm 2 mps 739 mmHg 93%
    07:00 +5°C° 0 mm 2 mps 739 mmHg 93%
    08:00 +6°C° 0 mm 2 mps 739 mmHg 86%
    09:00 +8°C° 0 mm 3 mps 738 mmHg 80%
    10:00 +9°C° 0 mm 3 mps 738 mmHg 74%
    11:00 +9°C° 0 mm 3 mps 738 mmHg 71%
    12:00 +9°C° 0 mm 3 mps 738 mmHg 69%
    13:00 +10°C° 0 mm 4 mps 737 mmHg 66%
    14:00 +10°C° 0 mm 4 mps 737 mmHg 65%
    15:00 +10°C° 0 mm 4 mps 737 mmHg 64%
    16:00 +10°C° 0 mm 4 mps 736 mmHg 63%
    17:00 +9°C° 0 mm 3 mps 736 mmHg 68%
    18:00 +8°C° 0 mm 3 mps 736 mmHg 73%
    19:00 +5°C° 0 mm 3 mps 735 mmHg 79%
    20:00 +5°C° 0 mm 3 mps 735 mmHg 78%
    21:00 +5°C° 0 mm 3 mps 734 mmHg 77%
    22:00 +5°C° 0 mm 3 mps 734 mmHg 77%
    23:00 +5°C° 0 mm 4 mps 734 mmHg 75%

    28 September, Friday

    Time Temperature Precipitation Wind Pressure Humidity
    00:00 +5°C° 0 mm 4 mps 733 mmHg 73%
    01:00 +5°C° 0 mm 4 mps 733 mmHg 71%
    02:00 +5°C° 0.2 mm 5 mps 732 mmHg 73%
    03:00 +5°C° 0.2 mm 5 mps 732 mmHg 75%
    04:00 +5°C° 0.2 mm 5 mps 731 mmHg 78%
    05:00 +3°C° 0.5 mm 6 mps 731 mmHg 80%
    06:00 +3°C° 0.5 mm 6 mps 731 mmHg 83%
    07:00 +3°C° 0.5 mm 6 mps 731 mmHg 85%
    08:00 +3°C° 0.1 mm 6 mps 732 mmHg 84%
    09:00 +4°C° 0.1 mm 6 mps 732 mmHg 83%
    10:00 +5°C° 0.1 mm 5 mps 732 mmHg 82%
    11:00 +6°C° 0.1 mm 5 mps 733 mmHg 79%
    12:00 +6°C° 0.1 mm 5 mps 733 mmHg 77%
    13:00 +7°C° 0.1 mm 5 mps 734 mmHg 75%
    14:00 +7°C° 0.1 mm 5 mps 734 mmHg 74%
    15:00 +7°C° 0.1 mm 5 mps 734 mmHg 74%
    16:00 +7°C° 0.1 mm 4 mps 734 mmHg 74%
    17:00 +7°C° 0 mm 4 mps 734 mmHg 77%
    18:00 +6°C° 0 mm 4 mps 734 mmHg 79%
    19:00 +5°C° 0 mm 4 mps 734 mmHg 82%
    20:00 +5°C° 0 mm 5 mps 733 mmHg 82%
    21:00 +5°C° 0 mm 5 mps 733 mmHg 81%
    22:00 +4°C° 0 mm 6 mps 732 mmHg 81%
    23:00 +5°C° 0 mm 6 mps 731 mmHg 81%
    Show more